EHI
0 0 0 0 0 0 0 0 0 0 0 0 0 0 0 0 0 0 0 0 1 6 13 18 25 39 62 83 92 94 94 92 87 74 50 25 10 3 1 0 0 0 0 0
0 0 0 0 0 0 0 0 0 0 0 0 0 0 0 0 0 0 0 0 0 3 6 10 18 32 53 74 86 89 87 84 76 59 32 13 5 1 0 0 0 0 0 0
0 0 0 0 0 0 0 0 0 0 0 0 0 0 0 0 0 0 0 0 0 0 1 4 10 21 38 57 70 74 72 66 54 33 13 3 1 0 0 0 0 0 0 0
0 0 0 0 0 0 0 0 0 0 0 0 0 0 0 0 0 1 1 0 0 0 1 5 10 18 29 41 50 53 52 45 31 15 4 0 0 0 0 0 0 0 0 0
0 0 0 0 0 0 0 0 0 0 0 0 0 0 0 1 1 2 2 2 3 5 8 14 19 23 28 33 35 36 35 29 17 7 1 0 0 0 0 0 0 0 0 0
0 0 0 0 0 0 0 0 0 0 0 0 0 0 0 1 3 3 4 6 10 13 18 25 27 26 26 27 26 24 22 17 8 2 0 0 0 0 0 0 0 0 0 0
0 0 0 0 0 0 0 0 0 0 0 0 0 0 2 4 6 6 5 9 13 15 18 22 22 18 16 16 15 13 10 7 3 0 0 0 0 0 0 0 0 0 0 0
0 0 0 0 0 0 0 0 0 0 0 0 0 0 3 9 12 11 8 9 9 8 8 9 9 7 6 6 6 4 3 2 1 0 0 0 0 0 0 0 0 0 0 0
0 0 0 0 0 0 0 0 0 0 0 0 0 0 3 10 16 15 10 6 3 2 2 2 1 1 1 1 1 1 1 1 0 0 0 0 0 0 0 0 0 0 0 0
0 0 0 0 0 0 0 0 0 0 0 0 0 0 2 7 13 14 9 4 1 0 0 0 0 0 0 0 0 0 0 0 0 0 0 0 0 0 0 0 0 0 0 0
0 0 0 0 0 0 0 0 0 0 0 0 0 0 2 7 12 11 7 2 0 0 0 0 0 0 0 0 0 0 0 0 0 0 0 0 0 0 0 0 0 0 0 0
0 0 0 0 0 0 0 0 0 0 0 0 0 0 5 13 16 11 6 1 0 0 0 0 0 0 0 0 0 0 0 0 0 0 0 0 0 0 0 0 0 0 0 0
0 0 0 0 0 0 0 0 0 0 0 0 0 1 7 17 19 12 4 0 0 0 0 0 0 0 0 0 0 0 0 0 0 0 0 0 0 0 0 0 0 0 0 0
0 0 0 0 0 0 0 0 0 0 0 0 0 0 5 12 14 8 2 0 0 0 0 0 0 0 0 0 0 0 0 0 0 0 0 0 0 0 0 0 0 0 0 0
0 0 0 0 0 0 0 0 0 0 0 0 0 0 2 5 6 3 1 0 0 0 0 0 0 0 0 0 0 0 0 0 0 0 0 0 0 0 0 0 0 0 0 0
0 0 0 0 0 0 0 0 0 0 0 0 0 0 1 2 1 0 0 0 0 0 0 0 0 0 0 0 0 0 0 0 0 0 0 0 0 0 0 0 0 0 0 0
0 0 0 0 0 0 0 0 0 0 0 0 0 0 0 0 0 0 0 0 0 0 0 0 0 0 0 0 0 0 0 0 0 0 0 0 0 0 0 0 0 0 0 0
0 0 0 0 0 0 0 0 0 0 0 0 0 0 0 0 0 0 0 0 0 0 0 0 0 0 0 0 0 0 0 0 0 0 0 0 0 0 0 0 0 0 0 0
0 0 0 0 0 0 0 0 0 0 0 0 0 0 0 0 0 0 0 0 0 0 0 0 0 0 0 0 0 0 0 0 0 0 0 0 0 0 0 0 0 0 0 0
0 0 0 0 0 0 0 0 0 0 0 0 0 0 0 0 0 0 0 0 0 0 0 0 0 0 0 0 0 0 0 0 0 0 0 0 0 0 0 0 0 0 0 0
0 0 0 0 0 0 0 0 0 0 0 0 0 0 0 0 0 0 0 0 0 0 0 0 0 0 0 0 0 0 0 0 0 0 0 0 0 0 0 0 0 0 0 0
0 0 0 0 0 0 0 0 0 0 0 0 0 0 0 0 0 0 0 0 0 0 0 0 0 0 0 0 0 0 0 0 0 0 0 0 0 0 0 0 0 0 0 0
0 0 0 0 0 0 0 0 0 0 0 0 0 0 0 0 0 0 0 0 0 0 0 0 0 0 0 0 0 0 0 0 0 0 0 0 0 0 0 0 0 0 0 0
0 0 0 0 0 0 0 0 0 0 0 0 0 0 0 0 0 0 0 0 0 0 0 0 0 0 0 0 0 0 0 0 0 0 0 0 0 0 0 0 0 0 0 0
0 0 0 0 0 0 0 0 0 0 0 0 0 0 0 0 0 0 0 0 0 0 0 0 0 0 0 0 0 0 0 0 0 0 0 0 0 0 0 0 0 0 0 0
0 0 0 0 0 0 0 0 0 0 0 0 0 0 0 0 0 0 0 0 0 0 0 0 0 0 0 0 0 0 0 0 0 0 0 0 0 0 0 0 0 0 0 0
Wind_Speed
5 5 5 8 9 7 3 2 4 6 4 3 5 9 11 6 5 8 9 11 13 19 18 12 11 10 10 11 12 12 11 8 7 5 5 4 4 4 5 4 5 5 6 8
4 4 9 7 5 4 3 2 5 7 3 1 5 9 10 6 6 7 9 11 14 14 11 11 10 9 9 9 9 9 8 7 7 5 5 5 6 5 4 4 4 5 6 7
7 6 6 6 5 5 4 5 5 6 6 4 3 9 9 7 2 3 5 7 7 8 10 8 7 7 6 6 7 6 8 8 9 10 8 7 6 4 3 3 2 3 5 5
6 6 4 5 5 7 6 8 6 3 1 4 2 4 11 7 8 6 8 8 8 7 4 2 3 3 4 5 7 10 11 12 11 11 9 8 5 4 3 3 2 3 4 5
7 6 7 7 8 9 8 4 5 4 4 2 1 3 10 6 7 8 10 11 10 8 7 8 8 9 9 9 11 12 13 13 11 10 9 8 6 5 4 5 5 4 4 5
6 4 7 9 7 7 5 3 5 5 4 2 5 6 7 4 6 7 8 10 11 11 13 13 13 13 12 11 11 11 13 12 10 9 8 9 9 7 7 7 6 5 4 4
3 4 4 4 2 1 4 5 4 4 3 7 3 4 4 5 5 5 8 10 11 11 11 12 12 12 11 11 11 11 12 11 8 9 8 8 9 8 8 8 7 6 4 4
4 7 6 6 9 7 6 10 8 6 6 5 0 3 0 3 7 9 10 10 11 12 12 13 12 12 11 11 10 10 11 10 9 8 8 9 8 6 6 8 7 6 4 4
6 7 5 5 7 10 6 7 8 7 3 1 2 1 1 5 8 9 10 11 11 12 13 13 13 13 12 12 11 10 11 11 10 10 10 10 9 8 9 8 7 6 5 4
7 4 5 3 3 1 5 6 6 7 8 4 2 1 1 1 5 7 8 9 10 11 12 13 12 13 12 12 12 12 12 11 10 9 9 9 9 9 9 8 8 7 5 5
4 4 5 3 2 0 3 3 4 4 5 7 4 3 1 2 4 6 7 9 9 10 10 11 10 11 11 11 11 11 11 11 10 10 10 10 9 9 9 9 8 7 6 6
1 4 2 2 1 2 4 3 5 5 3 3 5 2 3 2 6 8 8 8 9 9 9 9 9 10 10 11 10 10 10 10 9 9 9 10 9 10 10 9 8 8 8 7
2 4 2 3 4 7 4 3 3 5 5 3 4 3 1 6 8 8 8 8 8 8 9 9 9 9 9 9 9 9 9 9 9 9 10 10 9 10 10 9 8 8 8 7
4 4 3 4 3 1 2 4 2 4 4 3 3 5 3 6 7 8 8 8 7 7 8 8 8 8 8 8 8 8 8 8 9 10 11 10 9 9 9 8 7 7 6 6
5 4 2 2 2 2 3 5 4 2 3 5 6 7 5 4 6 7 7 7 7 7 7 7 7 7 7 7 8 8 8 8 9 10 11 9 8 8 8 7 7 6 5 5
5 3 2 3 4 4 4 7 6 4 3 4 8 5 3 6 7 8 7 7 6 7 7 7 7 7 7 7 7 8 8 7 8 10 9 8 8 8 7 6 6 6 6 5
3 3 2 1 3 3 2 4 2 2 2 2 3 5 8 7 8 6 5 6 7 7 7 6 6 6 6 6 6 8 7 8 9 8 8 7 7 7 6 5 6 5 4 4
1 2 2 1 1 3 3 2 4 6 5 4 8 8 8 9 8 8 7 7 8 7 7 6 6 6 6 6 6 7 7 7 8 7 7 6 6 6 5 5 5 4 3 3
2 4 3 2 2 0 1 1 1 3 3 2 7 9 9 8 7 6 7 8 7 7 7 6 6 6 6 6 6 7 6 6 6 6 5 5 5 5 5 5 4 3 3 3
5 4 4 3 3 4 3 3 1 5 1 2 5 8 8 5 3 2 5 8 8 8 7 7 6 7 6 5 5 6 5 5 5 4 4 4 5 5 4 4 3 3 3 3
5 5 3 2 1 2 3 4 1 1 5 3 5 6 6 3 3 7 8 8 8 8 7 7 7 6 5 4 5 5 4 4 3 4 5 4 4 4 3 3 3 3 3 3
1 1 1 1 1 3 5 3 1 3 1 4 4 4 7 9 10 9 9 8 8 8 7 6 6 5 4 4 4 4 3 2 3 4 4 4 3 2 3 3 3 3 3 3
1 3 3 4 4 4 3 2 2 2 3 3 4 6 11 11 10 9 8 8 8 7 6 5 5 5 4 3 3 3 1 2 4 4 3 3 3 3 2 2 2 2 2 2
3 1 1 1 2 2 3 3 4 4 3 4 6 9 10 10 10 10 9 7 6 6 5 4 4 4 3 2 2 1 1 3 4 4 2 2 2 1 1 1 0 0 1 1
3 1 1 2 2 2 3 4 4 5 7 9 8 8 9 12 11 10 8 7 6 5 4 3 4 3 2 2 3 2 1 3 4 3 2 1 1 0 1 1 1 1 2 2
3 3 3 4 3 2 1 1 3 5 6 8 10 9 9 10 11 10 7 5 5 4 3 3 3 3 2 2 3 3 2 3 4 2 1 1 1 1 1 2 2 3 3 4
Wind_Direction
132 111 183 199 187 188 193 220 275 271 280 309 291 290 290 288 249 245 243 231 224 226 228 220 214 206 194 191 190 191 190 174 157 148 136 117 97 84 73 63 68 91 107 111
85 218 215 193 177 175 195 245 277 289 325 270 293 291 283 272 246 244 247 245 238 237 231 217 213 206 200 195 189 183 174 156 148 128 112 105 103 91 86 85 83 98 113 121
171 223 193 166 171 177 199 205 235 264 331 340 295 310 305 304 326 324 314 292 281 258 239 222 205 205 194 182 169 150 136 126 117 112 106 105 100 94 83 76 75 86 106 116
203 231 169 172 197 175 237 225 213 234 328 301 24 308 296 309 330 2 3 352 335 323 301 216 170 155 137 127 115 113 112 112 114 116 120 119 113 106 95 99 94 87 92 103
220 199 179 200 215 181 217 217 197 208 192 270 270 187 281 339 341 357 11 12 11 17 42 61 75 85 87 93 100 106 108 110 114 115 122 119 110 108 117 120 117 102 88 93
221 211 185 202 218 196 199 71 47 52 90 242 230 167 270 337 331 344 22 38 43 52 63 70 75 80 82 88 96 104 108 106 107 109 111 116 122 135 143 138 127 115 99 91
264 266 232 184 196 244 138 108 25 358 30 242 228 158 253 335 10 41 55 54 53 57 64 69 71 75 79 84 91 98 102 101 100 102 106 117 128 136 139 132 126 121 114 106
207 269 238 195 191 200 183 151 164 194 210 255 107 179 33 33 68 72 69 64 59 57 59 62 64 67 69 72 76 85 90 89 84 86 89 93 102 110 115 120 123 119 116 112
188 247 268 226 198 169 165 193 180 150 168 184 261 159 66 60 76 75 72 68 62 58 58 58 57 57 60 60 60 68 78 78 76 80 83 85 91 96 101 104 104 107 110 112
170 238 285 279 106 131 162 151 107 134 154 200 235 171 195 91 99 87 77 71 65 60 60 60 58 58 58 59 61 62 67 73 74 76 81 87 87 92 99 101 100 97 92 91
150 189 298 14 64 303 99 106 115 126 156 160 192 239 257 194 131 110 87 74 67 64 63 62 62 62 65 65 65 66 66 69 70 72 77 80 81 84 87 88 87 86 83 84
67 131 248 268 326 7 103 125 142 148 183 154 150 198 330 110 112 108 96 83 73 69 65 64 65 66 66 67 67 68 69 72 72 75 79 79 80 81 82 82 81 82 81 81
41 93 76 12 354 5 34 37 98 114 105 122 138 185 58 97 96 95 94 87 78 70 66 62 61 61 64 67 69 70 72 78 80 82 81 78 77 80 80 81 80 81 85 86
90 73 131 172 211 281 4 3 51 97 116 141 160 150 137 118 112 103 96 91 81 71 67 65 61 58 59 61 66 70 70 74 81 83 83 80 78 80 81 80 78 79 84 86
57 70 46 46 29 62 52 15 15 55 151 158 163 149 152 135 120 111 107 102 93 83 75 71 68 64 65 67 67 70 71 72 80 84 83 82 82 81 80 77 75 73 72 75
33 68 43 22 29 60 39 15 24 30 26 117 127 126 112 107 105 104 107 112 102 91 86 83 80 76 72 75 79 79 77 76 80 84 84 84 83 81 78 74 71 67 60 54
8 55 72 297 334 45 348 333 14 54 7 156 161 142 129 105 89 85 93 104 105 99 95 91 86 82 79 79 86 86 84 82 81 82 85 85 87 86 80 79 70 62 53 47
131 87 101 118 103 211 251 12 96 91 53 81 113 116 109 104 87 63 63 89 96 96 95 94 93 89 81 80 79 81 79 81 84 84 88 90 90 86 78 71 63 51 42 38
122 134 116 115 134 124 234 285 214 112 60 59 117 118 114 117 93 62 55 74 84 89 93 92 93 93 87 80 80 83 78 79 85 88 91 91 90 85 75 63 49 38 40 36
43 74 104 117 153 216 234 332 48 97 109 205 142 143 145 134 120 120 92 88 89 90 92 94 92 88 82 72 76 84 83 82 83 88 89 87 89 88 78 63 48 37 46 39
6 24 66 112 174 271 314 320 31 161 233 180 156 156 151 126 113 119 109 98 97 97 95 93 89 82 75 72 82 84 83 83 87 95 91 88 86 86 80 66 53 52 50 39
337 27 42 98 142 262 327 354 177 216 79 103 127 133 122 111 111 112 110 107 105 102 95 92 89 77 63 68 85 88 82 81 90 95 94 88 81 79 86 82 67 54 49 38
227 197 198 195 218 266 320 356 11 81 89 96 113 122 128 128 128 121 115 110 103 100 91 82 85 72 46 47 92 106 132 125 114 108 106 99 85 68 77 93 83 53 37 27
309 69 148 274 284 322 2 21 29 41 74 100 121 130 132 130 129 122 118 111 103 97 89 85 86 77 48 31 63 153 190 153 136 133 130 119 100 68 45 55 102 92 341 346
267 337 74 291 297 358 18 30 51 76 92 100 103 112 123 126 125 123 119 114 107 99 87 86 90 84 55 37 36 29 96 135 131 135 141 127 105 287 314 311 267 258 249 241
225 186 178 231 246 205 260 55 89 102 108 116 116 110 114 121 122 121 116 111 108 102 95 89 86 79 54 45 34 28 72 123 130 140 174 207 243 288 308 322 325 308 292 304